Regional Weather Roundup
Issued by NWS Green Bay, WI

Home | Current Version | Previous Version | Graphics & Text | Print | Product List | Glossary Off
Versions: 1 2 3 4 5 6 7 8 9 10 11 12 13 14 15 16 17 18 19 20 21 22 23 24 25 26 27 28 29 30 31 32 33 34 35 36 37 38 39 40 41 42 43 44 45 46 47 48 49 50

000
ASUS43 KGRB 241611
RWRGRB

NORTH-CENTRAL AND NORTHEAST WISCONSIN REGIONAL WEATHER ROUNDUP
NATIONAL WEATHER SERVICE GREEN BAY WI
1100 AM CDT TUE MAY 24 2016

WIZ005-009-010>012-018-019-241700-
NORTH CENTRAL WISCONSIN

CITY           SKY/WX    TMP DP  RH WIND       PRES   REMARKS
IRONWOOD       NOT AVBL
MANITOWISH WTR CLOUDY    68  63  85 SW10      29.89S
ARBOR VITAE    CLOUDY    72  65  79 SW10      29.91R
EAGLE RIVER    LGT RAIN  67  60  78 S5        29.91S
LAND O LAKES   LGT RAIN  69  62  78 SW3       29.91S
RHINELANDER    LGT RAIN  68  61  78 SW7       29.92R
PHILLIPS       CLOUDY    68  63  83 S6        29.89S
ANTIGO         MOSUNNY   69  61  77 SW7       29.93S
TOMAHAWK       LGT RAIN  65  60  85 CALM      29.92R
MERRILL        CLOUDY    68  61  77 S3        29.92S
$$

WIZ013-073-241700-
NORTHEAST WISCONSIN

CITY           SKY/WX    TMP DP  RH WIND       PRES   REMARKS
IRON MOUNTAIN  CLOUDY    72  60  66 VRB3      29.91R
MARINETTE        N/A     75  57  53 E8        29.92
OCONTO         CLOUDY    74  55  50 S9        29.91R
$$

WIZ017-030-035>037-045-241700-
CENTRAL WISCONSIN

CITY           SKY/WX    TMP DP  RH WIND       PRES   REMARKS
MEDFORD        CLOUDY    66  60  83 S6        29.91S
WAUSAU         CLOUDY    72  58  61 S7        29.89S
MOSINEE        MOSUNNY   68  59  73 S6        29.92S
MARSHFIELD     PTSUNNY   71  58  63 S7        29.90S
WISC RAPIDS    CLOUDY    71  56  58 SW7       29.93R
STEVENS POINT  CLOUDY    71  55  56 W6        29.91F
WAUPACA        PTSUNNY   76  56  48 S6        29.92S
SHAWANO        CLOUDY    74  53  48 S6        29.91F
CLINTONVILLE   MOSUNNY   75  52  43 S5        29.91F
WAUTOMA        PTSUNNY   75  58  55 S6        29.92F
$$

WIZ038-039-048-051-241700-
FOX VALLEY

CITY           SKY/WX    TMP DP  RH WIND       PRES   REMARKS
NWS GREEN BAY  PTSUNNY   78  54  43 SW10      29.92R
APPLETON       PTSUNNY   73  54  49 VRB6      29.92R
OSHKOSH        PTSUNNY   77  57  50 S7        29.91F
FOND DU LAC    MOSUNNY   80  57  45 S12       29.92F
$$

WIZ022-050-052-241700-
EAST CENTRAL WISCONSIN

CITY           SKY/WX    TMP DP  RH WIND       PRES   REMARKS
EPHRAIM        FAIR      74  51  44 W8        29.92R
STURGEON BAY   NOT AVBL
MANITOWOC      SUNNY     80  53  39 SE12      29.93R
SHEBOYGAN      SUNNY     79  55  43 S14       29.94R
$$

LMZ563-521-522-541>543-241700-
LAKESHORE

STATION/POSITION TIME  TEMP    WIND        PRES    VSBY  WAVE
                       AIR SEA DIR/SP/G                  HT/PER
                 (UTC) (F)     (DEG/KT/KT) (MB)    (MI)  (FT/S)
SHEBOYGAN LKSHOR 1600   66     170/ 18/ 18 1013.9R
KEWAUNEE LKSHORE 1500   53     160/ 10/ 11 1012.5S
ALGOMA MARINA    1516          200/  6/  7   N/A
NORTHPORT PIER   1500   58     150/  7/  8 1012.5S
N MID LAKE BUOY  1550   47 44  190/ 10/ 12 1013.5R         2/ 4
SISTER BAY LKSHO 1519           10/  5/  6   N/A
CHAMBERS ISLAND  1500   70     190/  4/  7 1012.9S
MENOMINEE LKSHOR 1500   65     170/  6/  7 1011.7R
$$



USA.gov is the U.S. government's official web portal to all federal, state and local government web resources and services.